This is the latest recevied weather packets stored in our database for station/object KD0RII. If no packets are shown the sender has not sent any weather packets the latest 10 day(s).
| Time | Temp. | Humidity | Pressure | Rain* | Wind** | Luminosity | Snow |
|---|---|---|---|---|---|---|---|
| 1777815257 | 13.89° C | 61% | 1016 hPa | 0 mm | - | 52 W/m² | - |
| 1777814951 | 13.89° C | 60% | 1016.2 hPa | 0 mm | - | 67 W/m² | - |
| 1777814648 | 13.33° C | 61% | 1015.9 hPa | 0 mm | - | 65 W/m² | - |
| 1777814344 | 12.78° C | 61% | 1015.9 hPa | 0 mm | - | 51 W/m² | - |
| 1777814041 | 12.22° C | 63% | 1015.9 hPa | 0 mm | - | 87 W/m² | - |
| 1777813739 | 12.22° C | 64% | 1015.9 hPa | 0 mm | - | 43 W/m² | - |
| 1777813436 | 11.67° C | 64% | 1016 hPa | 0 mm | - | 54 W/m² | - |
| 1777813133 | 11.67° C | 65% | 1016.1 hPa | 0 mm | - | 41 W/m² | - |
| 1777812831 | 11.11° C | 67% | 1016.3 hPa | 0 mm | - | 42 W/m² | - |
| 1777812522 | 10.56° C | 67% | 1016.5 hPa | 0 mm | - | 40 W/m² | - |
| 1777812220 | 10.56° C | 68% | 1016.6 hPa | 0 mm | - | 39 W/m² | - |
| 1777811918 | 10.56° C | 69% | 1016.4 hPa | 0 mm | - | 37 W/m² | - |
| 1777811617 | 10° C | 68% | 1016.6 hPa | 0 mm | - | 36 W/m² | - |
| 1777811312 | 10° C | 68% | 1016.7 hPa | 0 mm | - | 34 W/m² | - |
| 1777811009 | 9.44° C | 69% | 1016.6 hPa | 0 mm | - | 31 W/m² | - |
| 1777810706 | 9.44° C | 70% | 1016.5 hPa | 0 mm | - | 29 W/m² | - |
| 1777810403 | 8.89° C | 70% | 1016.5 hPa | 0 mm | - | 27 W/m² | - |
| 1777810099 | 8.89° C | 70% | 1016.7 hPa | 0 mm | - | 25 W/m² | - |
| 1777809796 | 8.89° C | 70% | 1016.6 hPa | 0 mm | - | 22 W/m² | - |
| 1777809494 | 8.89° C | 70% | 1016.5 hPa | 0 mm | - | 20 W/m² | - |
| 1777809191 | 8.89° C | 70% | 1016.4 hPa | 0 mm | - | 17 W/m² | - |
| 1777808889 | 8.89° C | 69% | 1016.6 hPa | 0 mm | - | 14 W/m² | - |
| 1777808585 | 8.89° C | 69% | 1016.7 hPa | 0 mm | - | 12 W/m² | - |
| 1777808282 | 8.89° C | 69% | 1016.4 hPa | 0 mm | - | 9 W/m² | - |
| 1777807981 | 8.89° C | 69% | 1016.7 hPa | 0 mm | - | 7 W/m² | - |
* Rain latest hour (hover to see other rain measurements)
** Current wind speed in m/s (hover to see current wind gust speed)